Tallahassee, FL

3:28 PM EDT on May 22, 2017 (GMT -0400)
Tallahassee Regional

Weather History for KTLH - February, 2012

Change the Weather History Date:

Friday, February 3, 2012

  Actual Average Record
Temperature  
Mean Temperature 63 °F 53 °F  
Max Temperature 74 °F 65 °F 83 °F (1989)
Min Temperature 52 °F 40 °F 15 °F (1917)
Degree Days  
Heating Degree Days 2    
Month to date heating degree days 13  
Since 1 July heating degree days 824  
Cooling Degree Days 0    
Month to date cooling degree days 0  
Year to date cooling degree days 13  
Growing Degree Days 13 (Base 50)    
Moisture  
Dew Point 55 °F    
Average Humidity 79    
Maximum Humidity 100    
Minimum Humidity 57    
Precipitation  
Precipitation 0.00 in 0.15 in 2.04 in (1982)
Month to date precipitation 0.02 0.47  
Year to date precipitation 2.87 4.81  
Sea Level Pressure  
Sea Level Pressure 30.24 in    
Wind  
Wind Speed 6 mph (East)    
Max Wind Speed 14 mph    
Max Gust Speed 17 mph    
Visibility 10 miles    
Events Fog    
T = Trace of Precipitation, MM = Missing Value Source: NWS Daily Summary

Daily Weather History Graph

Daily Weather History Graph

Search for Another Location

Airport or City:

Trip Planner

Search our weather history database for the weather conditions in past years. The results will help you decide how hot, cold, wet, or windy it might be!

Date:

Astronomy

Feb. 03, 2012 Rise Set
Actual Time 7:27 AM EST 6:15 PM EST
Civil Twilight 7:02 AM EST 6:40 PM EST
Nautical Twilight 6:33 AM EST 7:09 PM EST
Astronomical Twilight 6:05 AM EST 7:37 PM EST
Moon 2:24 PM EST (2/3) 3:53 AM EST (2/3)
Length of Visible Light 11h 38m
Length of Day
10h 47m
Waxing Gibbous, 81% of the Moon is Illuminated
Feb 3
Waxing Gibbous
Feb 7
Full
Feb 14
Last Quarter
Feb 21
New
Feb 29
First Quarter

Hourly Weather History & Observations

Time (EST) Temp. Dew Point Humidity Pressure Visibility Wind Dir Wind Speed Gust Speed Precip Events Conditions
12:53 AM 53.1 °F 51.1 °F 93% 30.20 in 10.0 mi Calm Calm - N/A Fog Patches of Fog
1:53 AM 54.0 °F 53.1 °F 97% 30.20 in 8.0 mi Calm Calm - N/A Fog Patches of Fog
2:53 AM 55.0 °F 54.0 °F 96% 30.21 in 7.0 mi Calm Calm - N/A Fog Patches of Fog
3:53 AM 55.0 °F 54.0 °F 96% 30.21 in 7.0 mi Calm Calm - N/A Fog Patches of Fog
4:53 AM 53.1 °F 51.1 °F 93% 30.21 in 9.0 mi Calm Calm - N/A Fog Patches of Fog
5:53 AM 59.0 °F 53.1 °F 81% 30.22 in 10.0 mi East 4.6 mph - N/A   Clear
6:53 AM 60.1 °F 51.1 °F 72% 30.24 in 10.0 mi ENE 4.6 mph - N/A   Overcast
7:53 AM 59.0 °F 51.1 °F 75% 30.25 in 10.0 mi ENE 6.9 mph - N/A   Partly Cloudy
8:53 AM 61.0 °F 51.1 °F 70% 30.27 in 10.0 mi East 6.9 mph - N/A   Partly Cloudy
9:53 AM 63.0 °F 52.0 °F 67% 30.27 in 10.0 mi East 8.1 mph - N/A   Partly Cloudy
10:53 AM 64.9 °F 54.0 °F 68% 30.28 in 10.0 mi East 9.2 mph - N/A   Clear
11:53 AM 68.0 °F 54.0 °F 61% 30.27 in 10.0 mi East 8.1 mph - N/A   Clear
12:53 PM 70.0 °F 55.9 °F 61% 30.25 in 10.0 mi East 9.2 mph - N/A   Clear
1:53 PM 72.0 °F 57.0 °F 59% 30.23 in 10.0 mi ESE 10.4 mph - N/A   Partly Cloudy
2:53 PM 73.0 °F 57.9 °F 59% 30.22 in 10.0 mi East 8.1 mph - N/A   Scattered Clouds
3:53 PM 73.0 °F 57.9 °F 59% 30.21 in 10.0 mi ENE 6.9 mph - N/A   Mostly Cloudy
4:53 PM 73.9 °F 57.9 °F 57% 30.22 in 10.0 mi ENE 6.9 mph - N/A   Overcast
5:53 PM 72.0 °F 57.9 °F 61% 30.23 in 10.0 mi East 6.9 mph - N/A   Overcast
6:53 PM 70.0 °F 57.0 °F 63% 30.24 in 10.0 mi NE 3.5 mph - N/A   Mostly Cloudy
7:53 PM 68.0 °F 57.0 °F 68% 30.25 in 10.0 mi NE 3.5 mph - N/A   Scattered Clouds
8:53 PM 66.9 °F 55.9 °F 68% 30.24 in 10.0 mi ENE 4.6 mph - N/A   Scattered Clouds
9:53 PM 66.9 °F 55.9 °F 68% 30.25 in 10.0 mi East 8.1 mph - N/A   Clear
10:53 PM 66.0 °F 55.9 °F 70% 30.25 in 10.0 mi East 9.2 mph - N/A   Clear
11:53 PM 64.0 °F 55.9 °F 75% 30.23 in 10.0 mi East 12.7 mph - N/A   Clear